This is the latest recevied weather packets stored in our database for station/object K7SPS-10. If no packets are shown the sender has not sent any weather packets the latest 10 day(s).
| Time | Temp. | Humidity | Pressure | Rain* | Wind** | Luminosity | Snow |
|---|---|---|---|---|---|---|---|
| 1778360580 | 23.33° C | 25% | 1020 hPa | 0 mm | - | 747 W/m² | - |
| 1778360279 | 23.33° C | 28% | 1019.8 hPa | 0 mm | - | 754 W/m² | - |
| 1778359974 | 22.22° C | 27% | 1020.1 hPa | 0 mm | - | 760 W/m² | - |
| 1778359670 | 22.78° C | 27% | 1020.4 hPa | 0 mm | - | 765 W/m² | - |
| 1778359367 | 22.78° C | 27% | 1020 hPa | 0 mm | - | 772 W/m² | - |
| 1778359063 | 22.78° C | 26% | 1019.8 hPa | 0 mm | - | 781 W/m² | - |
| 1778358761 | 22.78° C | 29% | 1020.4 hPa | 0 mm | - | 785 W/m² | - |
| 1778358456 | 22.78° C | 29% | 1020.5 hPa | 0 mm | - | 787 W/m² | - |
| 1778358152 | 21.67° C | 30% | 1020.5 hPa | 0 mm | - | 790 W/m² | - |
| 1778357847 | 21.67° C | 31% | 1020.1 hPa | 0 mm | - | 795 W/m² | - |
| 1778357544 | 22.22° C | 31% | 1020.5 hPa | 0 mm | - | 796 W/m² | - |
| 1778357241 | 21.67° C | 31% | 1020.5 hPa | 0 mm | - | 798 W/m² | - |
| 1778356941 | 21.67° C | 30% | 1020.6 hPa | 0 mm | - | 798 W/m² | - |
| 1778356637 | 22.22° C | 30% | 1020.8 hPa | 0 mm | - | 801 W/m² | - |
| 1778356333 | 21.67° C | 31% | 1020.8 hPa | 0 mm | - | 801 W/m² | - |
| 1778356033 | 21.11° C | 32% | 1020.7 hPa | 0 mm | - | 802 W/m² | - |
| 1778355730 | 21.67° C | 30% | 1020.7 hPa | 0 mm | - | 800 W/m² | - |
| 1778355426 | 21.67° C | 31% | 1020.7 hPa | 0 mm | - | 803 W/m² | - |
| 1778355126 | 21.11° C | 31% | 1020.8 hPa | 0 mm | - | 806 W/m² | - |
| 1778354823 | 21.11° C | 31% | 1021 hPa | 0 mm | - | 808 W/m² | - |
| 1778354518 | 20.56° C | 32% | 1020.9 hPa | 0 mm | - | 807 W/m² | - |
| 1778354213 | 20.56° C | 32% | 1020.8 hPa | 0 mm | - | 804 W/m² | - |
| 1778353910 | 21.11° C | 31% | 1021.1 hPa | 0 mm | - | 803 W/m² | - |
| 1778353606 | 20.56° C | 31% | 1021.4 hPa | 0 mm | - | 802 W/m² | - |
| 1778353304 | 20.56° C | 31% | 1021.3 hPa | 0 mm | - | 799 W/m² | - |
* Rain latest hour (hover to see other rain measurements)
** Current wind speed in m/s (hover to see current wind gust speed)